Location: Belfast
(54.5830°N, 5.9330°W)
Time: 01:57:33
(UTC+00:00)

ISS - Pass Details

Date: 27 January 2021
Orbit: 417 x 422 km, 51.6° (Epoch: 25 February)

Event Time Altitude Azimuth Distance (km) Brightness Sun altitude
Rises 20:05:53 0° 272° (W) 2,380 1.3 -27.6°
Reaches altitude 10° 20:08:03 10° 265° (W) 1,514 0.0 -28.0°
Enters shadow 20:09:15 19° 256° (WSW) 1,072 -1.1 -28.1°
